• în România
  • Lista ţărilor
  • Pe 7 zile
  • Temperatura apei
  • Hartă satelitară
  • Meteo pe hartă
  • Widget-uri
  • user-avatar
    Intrare

    Meteo pe oră la Shkoder

    Astăzi, 28 Mai, Duminică

    Timp Temperatura Precipitaţii Vânt Presiune Umiditate
    00:00 +13°C° 0 mm 3 m/s 741 mmHg 83%
    01:00 +13°C° 0 mm 3 m/s 741 mmHg 83%
    02:00 +13°C° 0 mm 3 m/s 741 mmHg 84%
    03:00 +13°C° 0 mm 3 m/s 741 mmHg 84%
    04:00 +13°C° 0 mm 3 m/s 741 mmHg 84%
    05:00 +14°C° 0 mm 3 m/s 741 mmHg 79%
    06:00 +17°C° 0 mm 3 m/s 742 mmHg 73%
    07:00 +19°C° 0 mm 4 m/s 742 mmHg 65%
    08:00 +20°C° 0 mm 3 m/s 742 mmHg 60%
    09:00 +22°C° 0 mm 3 m/s 742 mmHg 54%
    10:00 +24°C° 0 mm 3 m/s 742 mmHg 48%
    11:00 +24°C° 0,1 mm 3 m/s 742 mmHg 48%
    12:00 +25°C° 0,1 mm 4 m/s 742 mmHg 47%
    13:00 +25°C° 0,1 mm 4 m/s 742 mmHg 46%
    14:00 +25°C° 0,2 mm 4 m/s 742 mmHg 47%
    15:00 +25°C° 0,2 mm 4 m/s 742 mmHg 49%
    16:00 +25°C° 0,2 mm 4 m/s 741 mmHg 50%
    17:00 +22°C° 0,1 mm 3 m/s 742 mmHg 58%
    18:00 +20°C° 0,1 mm 3 m/s 742 mmHg 66%
    19:00 +17°C° 0,1 mm 3 m/s 742 mmHg 74%
    20:00 +17°C° 0 mm 3 m/s 742 mmHg 75%
    21:00 +16°C° 0 mm 3 m/s 742 mmHg 77%
    22:00 +14°C° 0 mm 3 m/s 743 mmHg 78%
    23:00 +14°C° 0 mm 3 m/s 743 mmHg 80%

    Mâine, 29 Mai, Luni

    Timp Temperatura Precipitaţii Vânt Presiune Umiditate
    00:00 +14°C° 0 mm 3 m/s 743 mmHg 81%
    01:00 +13°C° 0 mm 3 m/s 743 mmHg 82%
    02:00 +13°C° 0 mm 3 m/s 742 mmHg 82%
    03:00 +13°C° 0 mm 3 m/s 742 mmHg 83%
    04:00 +12°C° 0 mm 3 m/s 742 mmHg 83%
    05:00 +14°C° 0 mm 3 m/s 742 mmHg 77%
    06:00 +17°C° 0 mm 3 m/s 742 mmHg 71%
    07:00 +19°C° 0 mm 2 m/s 742 mmHg 65%
    08:00 +21°C° 0 mm 2 m/s 742 mmHg 58%
    09:00 +24°C° 0 mm 1 m/s 742 mmHg 50%
    10:00 +26°C° 0 mm 1 m/s 742 mmHg 43%
    11:00 +27°C° 0 mm 2 m/s 741 mmHg 41%
    12:00 +27°C° 0 mm 2 m/s 741 mmHg 40%
    13:00 +28°C° 0 mm 3 m/s 741 mmHg 39%
    14:00 +27°C° 0 mm 3 m/s 740 mmHg 42%
    15:00 +27°C° 0 mm 3 m/s 740 mmHg 45%
    16:00 +26°C° 0 mm 2 m/s 740 mmHg 48%
    17:00 +24°C° 0 mm 2 m/s 740 mmHg 59%
    18:00 +20°C° 0 mm 2 m/s 740 mmHg 71%
    19:00 +18°C° 0 mm 1 m/s 739 mmHg 82%
    20:00 +16°C° 0 mm 1 m/s 740 mmHg 84%
    21:00 +15°C° 0 mm 1 m/s 740 mmHg 85%
    22:00 +13°C° 0 mm 0 m/s 740 mmHg 87%
    23:00 +13°C° 0 mm 0 m/s 740 mmHg 87%

    Poimâine, 30 Mai, Marţi

    Timp Temperatura Precipitaţii Vânt Presiune Umiditate
    00:00 +13°C° 0 mm 0 m/s 740 mmHg 87%
    01:00 +12°C° 0 mm 0 m/s 740 mmHg 87%
    02:00 +12°C° 0 mm 0 m/s 740 mmHg 88%
    03:00 +11°C° 0 mm 0 m/s 739 mmHg 89%
    04:00 +11°C° 0 mm 0 m/s 739 mmHg 89%
    05:00 +14°C° 0 mm 0 m/s 740 mmHg 80%
    06:00 +18°C° 0 mm 0 m/s 740 mmHg 70%
    07:00 +21°C° 0 mm 0 m/s 740 mmHg 60%
    08:00 +22°C° 0 mm 0 m/s 740 mmHg 55%
    09:00 +26°C° 0 mm 1 m/s 740 mmHg 50%
    10:00 +27°C° 0 mm 1 m/s 741 mmHg 44%
    11:00 +28°C° 0 mm 2 m/s 740 mmHg 44%
    12:00 +28°C° 0 mm 2 m/s 740 mmHg 44%
    13:00 +28°C° 0 mm 3 m/s 740 mmHg 44%
    14:00 +28°C° 0,2 mm 3 m/s 740 mmHg 49%
    15:00 +27°C° 0,2 mm 2 m/s 740 mmHg 53%
    16:00 +26°C° 0,2 mm 2 m/s 740 mmHg 58%
    17:00 +24°C° 0,2 mm 2 m/s 740 mmHg 68%
    18:00 +21°C° 0,2 mm 1 m/s 740 mmHg 78%
    19:00 +19°C° 0,2 mm 1 m/s 740 mmHg 88%
    20:00 +18°C° 0,1 mm 1 m/s 741 mmHg 89%
    21:00 +16°C° 0,1 mm 1 m/s 741 mmHg 90%
    22:00 +16°C° 0,1 mm 1 m/s 741 mmHg 91%
    23:00 +15°C° 0 mm 1 m/s 741 mmHg 91%

    31 Mai, Miercuri

    Timp Temperatura Precipitaţii Vânt Presiune Umiditate
    00:00 +15°C° 0 mm 1 m/s 741 mmHg 91%
    01:00 +14°C° 0 mm 1 m/s 741 mmHg 91%
    02:00 +14°C° 0 mm 1 m/s 741 mmHg 92%
    03:00 +14°C° 0 mm 1 m/s 741 mmHg 92%
    04:00 +14°C° 0 mm 1 m/s 741 mmHg 92%
    05:00 +16°C° 0 mm 1 m/s 741 mmHg 84%
    06:00 +20°C° 0 mm 1 m/s 741 mmHg 76%
    07:00 +23°C° 0 mm 1 m/s 742 mmHg 68%
    08:00 +24°C° 0 mm 1 m/s 742 mmHg 61%
    09:00 +26°C° 0 mm 1 m/s 742 mmHg 54%
    10:00 +27°C° 0 mm 2 m/s 742 mmHg 47%
    11:00 +28°C° 0,1 mm 2 m/s 741 mmHg 47%
    12:00 +28°C° 0,1 mm 2 m/s 741 mmHg 46%
    13:00 +28°C° 0,1 mm 3 m/s 741 mmHg 46%
    14:00 +28°C° 0,2 mm 3 m/s 741 mmHg 49%
    15:00 +27°C° 0,2 mm 2 m/s 741 mmHg 51%
    16:00 +26°C° 0,2 mm 2 m/s 740 mmHg 54%
    17:00 +24°C° 0,1 mm 2 m/s 740 mmHg 63%
    18:00 +21°C° 0,1 mm 1 m/s 740 mmHg 73%
    19:00 +19°C° 0,1 mm 1 m/s 740 mmHg 82%
    20:00 +18°C° 0,1 mm 1 m/s 740 mmHg 83%
    21:00 +16°C° 0,1 mm 1 m/s 741 mmHg 83%
    22:00 +14°C° 0,1 mm 0 m/s 741 mmHg 84%
    23:00 +14°C° 0 mm 0 m/s 741 mmHg 83%

    1 Iunie, Joi

    Timp Temperatura Precipitaţii Vânt Presiune Umiditate
    00:00 +14°C° 0 mm 0 m/s 741 mmHg 82%
    01:00 +14°C° 0 mm 0 m/s 740 mmHg 81%
    02:00 +14°C° 0 mm 1 m/s 740 mmHg 82%
    03:00 +14°C° 0 mm 1 m/s 740 mmHg 83%
    04:00 +14°C° 0 mm 1 m/s 740 mmHg 84%
    05:00 +18°C° 0 mm 1 m/s 740 mmHg 76%
    06:00 +20°C° 0 mm 1 m/s 740 mmHg 67%
    07:00 +23°C° 0 mm 1 m/s 741 mmHg 58%
    08:00 +25°C° 0 mm 1 m/s 740 mmHg 53%
    09:00 +26°C° 0 mm 1 m/s 740 mmHg 49%
    10:00 +28°C° 0 mm 2 m/s 740 mmHg 44%
    11:00 +28°C° 0 mm 2 m/s 740 mmHg 43%
    12:00 +29°C° 0 mm 3 m/s 740 mmHg 42%
    13:00 +29°C° 0 mm 3 m/s 740 mmHg 41%
    14:00 +28°C° 0 mm 3 m/s 739 mmHg 44%
    15:00 +28°C° 0 mm 3 m/s 739 mmHg 47%
    16:00 +27°C° 0 mm 2 m/s 739 mmHg 50%
    17:00 +24°C° 0 mm 2 m/s 739 mmHg 62%
    18:00 +21°C° 0 mm 1 m/s 739 mmHg 74%
    19:00 +19°C° 0 mm 1 m/s 739 mmHg 86%
    20:00 +18°C° 0,1 mm 1 m/s 739 mmHg 86%
    21:00 +15°C° 0,1 mm 0 m/s 740 mmHg 86%
    22:00 +14°C° 0,1 mm 0 m/s 740 mmHg 87%
    23:00 +14°C° 0 mm 0 m/s 740 mmHg 86%

    2 Iunie, Vineri

    Timp Temperatura Precipitaţii Vânt Presiune Umiditate
    00:00 +14°C° 0 mm 0 m/s 740 mmHg 85%
    01:00 +15°C° 0 mm 0 m/s 739 mmHg 84%
    02:00 +14°C° 0 mm 0 m/s 739 mmHg 85%
    03:00 +13°C° 0 mm 0 m/s 739 mmHg 86%
    04:00 +14°C° 0 mm 1 m/s 739 mmHg 87%
    05:00 +16°C° 0,1 mm 0 m/s 739 mmHg 79%
    06:00 +19°C° 0,1 mm 0 m/s 739 mmHg 70%
    07:00 +22°C° 0,1 mm 0 m/s 740 mmHg 61%
    08:00 +25°C° 0,1 mm 1 m/s 740 mmHg 58%
    09:00 +26°C° 0,1 mm 1 m/s 740 mmHg 55%
    10:00 +28°C° 0,1 mm 1 m/s 740 mmHg 52%
    11:00 +28°C° 0,5 mm 2 m/s 739 mmHg 52%
    12:00 +28°C° 0,5 mm 2 m/s 739 mmHg 52%
    13:00 +28°C° 0,5 mm 3 m/s 739 mmHg 52%
    14:00 +27°C° 0,6 mm 2 m/s 739 mmHg 55%
    15:00 +27°C° 0,6 mm 2 m/s 739 mmHg 58%
    16:00 +26°C° 0,6 mm 2 m/s 739 mmHg 62%
    17:00 +24°C° 0,3 mm 2 m/s 739 mmHg 70%
    18:00 +22°C° 0,3 mm 1 m/s 739 mmHg 79%
    19:00 +20°C° 0,3 mm 1 m/s 739 mmHg 87%
    20:00 +20°C° 0,2 mm 1 m/s 739 mmHg 87%
    21:00 +19°C° 0,2 mm 1 m/s 739 mmHg 88%
    22:00 +19°C° 0,2 mm 1 m/s 740 mmHg 88%
    23:00 +18°C° 0,1 mm 1 m/s 739 mmHg 89%
    Arată mai mult